Niue International (NIUE)

Aerodrome — Elev 209
Niue
S019.04.48.100 W169.55.32.300
Loading chart...

Current Weather

NIUE 241000Z AUTO 12017KT //// ////// 24/18 Q1011

Published 1 hours 7 minutes ago

Airport Activity

Loading chart...
Loading chart...

Positions

CallsignRadio Name / Freq / Voice Room / TypeFrequencyVoice RoomType
NZZO_FSS Auckland Radio
128.900
nzzo_fss
128.900nzzo_fss
NSFA_CTR Faleolo Control
123.800
nsfa_ctr
123.800nsfa_ctr
NIUE_TWR Niue Tower
118.100
niue_twr
118.100niue_twr
UNICOM NZZO UNICOM
122.800
unicom_nzzo
122.800unicom_nzzo